| time (UTC) | temp C | wind direction | speed KPH | gust KPH | rain 1hr cm | rain 24hr cm | rain mn cm | humidity % | barometer mb |
| 20260504194103 | 24 | 352 | 3.2 | 11.3 | 0.00 | 0.00 | 0.00 | 38 | 1007.1 |
| 20260504193603 | 25 | 351 | 4.8 | 12.9 | 0.00 | 0.00 | 0.00 | 40 | 1007.3 |
| 20260504193103 | 24 | 350 | 6.4 | 11.3 | 0.00 | 0.00 | 0.00 | 40 | 1007.3 |
| 20260504192603 | 24 | 349 | 6.4 | 9.7 | 0.00 | 0.00 | 0.00 | 39 | 1007.4 |
| 20260504192104 | 24 | 346 | 8.0 | 12.9 | 0.00 | 0.00 | 0.00 | 39 | 1007.5 |
| 20260504191604 | 24 | 350 | 8.0 | 9.7 | 0.00 | 0.00 | 0.00 | 40 | 1007.7 |
| 20260504191104 | 24 | 348 | 8.0 | 11.3 | 0.00 | 0.00 | 0.00 | 39 | 1007.7 |
| 20260504190604 | 24 | 348 | 1.6 | 11.3 | 0.00 | 0.00 | 0.00 | 39 | 1007.6 |
| 20260504190104 | 23 | 350 | 3.2 | 9.7 | 0.00 | 0.00 | 0.00 | 38 | 1007.7 |
| 20260504185604 | 23 | 349 | 3.2 | 11.3 | 0.00 | 0.00 | 0.00 | 39 | 1007.8 |
| 20260504185103 | 23 | 351 | 8.0 | 12.9 | 0.00 | 0.00 | 0.00 | 38 | 1007.8 |
| 20260504184603 | 23 | 351 | 4.8 | 12.9 | 0.00 | 0.00 | 0.00 | 39 | 1008.0 |
| 20260504184103 | 24 | 348 | 4.8 | 12.9 | 0.00 | 0.00 | 0.00 | 38 | 1007.9 |
| 20260504183603 | 23 | 349 | 6.4 | 19.3 | 0.00 | 0.00 | 0.00 | 37 | 1008.2 |
| 20260504183104 | 23 | 344 | 11.3 | 16.1 | 0.00 | 0.00 | 0.00 | 38 | 1008.1 |
| 20260504182104 | 24 | 351 | 4.8 | 16.1 | 0.00 | 0.00 | 0.00 | 37 | 1008.3 |
| 20260504181604 | 24 | 347 | 8.0 | 16.1 | 0.00 | 0.00 | 0.00 | 37 | 1008.5 |
| 20260504181103 | 24 | 347 | 9.7 | 12.9 | 0.00 | 0.00 | 0.00 | 36 | 1008.4 |
| 20260504180603 | 23 | 352 | 8.0 | 16.1 | 0.00 | 0.00 | 0.00 | 37 | 1008.4 |
| 20260504180104 | 23 | 346 | 9.7 | 16.1 | 0.00 | 0.00 | 0.00 | 36 | 1008.5 |
| 20260504175604 | 23 | 342 | 9.7 | 24.1 | 0.00 | 0.00 | 0.00 | 36 | 1008.4 |
| 20260504175104 | 24 | 353 | 9.7 | 12.9 | 0.00 | 0.00 | 0.00 | 36 | 1008.7 |
| 20260504174604 | 24 | 353 | 6.4 | 12.9 | 0.00 | 0.00 | 0.00 | 36 | 1008.7 |
| 20260504174103 | 23 | 354 | 4.8 | 11.3 | 0.00 | 0.00 | 0.00 | 37 | 1008.5 |
| 20260504173603 | 23 | 353 | 6.4 | 16.1 | 0.00 | 0.00 | 0.00 | 37 | 1008.8 |
| 20260504173104 | 23 | 351 | 6.4 | 16.1 | 0.00 | 0.00 | 0.00 | 39 | 1008.6 |
| 20260504172604 | 23 | 352 | 9.7 | 19.3 | 0.00 | 0.00 | 0.00 | 36 | 1008.8 |
| 20260504171604 | 23 | 354 | 6.4 | 14.5 | 0.00 | 0.00 | 0.00 | 39 | 1008.8 |
| 20260504171103 | 23 | 353 | 3.2 | 12.9 | 0.00 | 0.00 | 0.00 | 38 | 1009.0 |
| 20260504160105 | 21 | 354 | 4.8 | 9.7 | 0.00 | 0.00 | 0.00 | 46 | 1009.8 |
| 20260504151103 | 20 | 352 | 6.4 | 12.9 | 0.00 | 0.00 | 0.00 | 53 | 1010.0 |
| 20260504150604 | 20 | 354 | 4.8 | 9.7 | 0.00 | 0.00 | 0.00 | 54 | 1009.9 |
| 20260504150104 | 20 | 354 | 4.8 | 9.7 | 0.00 | 0.00 | 0.00 | 54 | 1009.8 |
| 20260504141103 | 18 | 353 | 6.4 | 12.9 | 0.00 | 0.00 | 0.00 | 58 | 1010.2 |
| 20260504140604 | 18 | 354 | 6.4 | 11.3 | 0.00 | 0.00 | 0.00 | 57 | 1010.3 |
| 20260504140104 | 18 | 351 | 4.8 | 11.3 | 0.00 | 0.00 | 0.00 | 59 | 1010.0 |
| 20260504130603 | 16 | 354 | 4.8 | 12.9 | 0.00 | 0.00 | 0.00 | 67 | 1010.6 |
| 20260504130104 | 16 | 353 | 6.4 | 12.9 | 0.00 | 0.00 | 0.00 | 68 | 1010.6 |
| 20260504120104 | 14 | 356 | 3.2 | 4.8 | 0.00 | 0.00 | 0.00 | 76 | 1010.7 |
| 20260504110604 | 11 | 358 | 1.6 | 3.2 | 0.00 | 0.00 | 0.00 | 85 | 1011.1 |
| 20260504110104 | 11 | 358 | 1.6 | 3.2 | 0.00 | 0.00 | 0.00 | 85 | 1011.0 |
| 20260504100604 | 10 | 357 | 0.0 | 1.6 | 0.00 | 0.00 | 0.00 | 88 | 1011.1 |
| 20260504100104 | 10 | 357 | 0.0 | 3.2 | 0.00 | 0.00 | 0.00 | 89 | 1011.2 |
| 20260504081603 | 10 | 358 | 1.6 | 8.0 | 0.00 | 0.00 | 0.00 | 91 | 1011.6 |
| 20260504081103 | 10 | 355 | 0.0 | 1.6 | 0.00 | 0.00 | 0.00 | 91 | 1011.5 |
| 20260504080604 | 10 | 355 | 1.6 | 4.8 | 0.00 | 0.00 | 0.00 | 91 | 1011.6 |
| 20260504080104 | 10 | 354 | 3.2 | 8.0 | 0.00 | 0.00 | 0.00 | 91 | 1011.6 |
| 20260504070104 | 10 | 351 | 1.6 | 3.2 | 0.00 | 0.00 | 0.00 | 92 | 1011.7 |
| 20260504050604 | 9 | 353 | 1.6 | 3.2 | 0.00 | 0.00 | 0.00 | 84 | 1011.9 |
| 20260504045604 | 9 | 353 | 0.0 | 1.6 | 0.00 | 0.00 | 0.00 | 85 | 1012.0 |
| 20260504045104 | 9 | 353 | 0.0 | 1.6 | 0.00 | 0.00 | 0.00 | 84 | 1011.9 |
| 20260504044603 | 10 | 353 | 0.0 | 1.6 | 0.00 | 0.00 | 0.00 | 83 | 1011.8 |
| 20260504044104 | 10 | 353 | 0.0 | 1.6 | 0.00 | 0.00 | 0.00 | 82 | 1011.8 |
| 20260504043103 | 8 | 353 | 0.0 | 1.6 | 0.00 | 0.00 | 0.00 | 84 | 1012.0 |
| 20260504042604 | 8 | 353 | 1.6 | 3.2 | 0.00 | 0.00 | 0.00 | 85 | 1011.8 |
| 20260504042104 | 8 | 353 | 0.0 | 3.2 | 0.00 | 0.00 | 0.00 | 87 | 1011.8 |
| 20260504041604 | 7 | 353 | 1.6 | 3.2 | 0.00 | 0.00 | 0.00 | 90 | 1011.9 |
| 20260504040603 | 7 | 353 | 0.0 | 1.6 | 0.00 | 0.00 | 0.00 | 91 | 1011.8 |
| 20260504040104 | 7 | 353 | 0.0 | 0.0 | 0.00 | 0.00 | 0.00 | 91 | 1011.6 |
| 20260504035603 | 7 | 353 | 0.0 | 0.0 | 0.00 | 0.00 | 0.00 | 91 | 1011.7 |
| 20260504035103 | 7 | 353 | 0.0 | 0.0 | 0.00 | 0.00 | 0.00 | 91 | 1011.8 |
| 20260504034603 | 7 | 353 | 0.0 | 1.6 | 0.00 | 0.00 | 0.00 | 91 | 1011.7 |
| 20260504034103 | 7 | 353 | 0.0 | 0.0 | 0.00 | 0.00 | 0.00 | 90 | 1011.7 |
| 20260504033103 | 7 | 353 | 0.0 | 0.0 | 0.00 | 0.00 | 0.00 | 89 | 1011.6 |
| 20260504032603 | 7 | 353 | 0.0 | 0.0 | 0.00 | 0.00 | 0.00 | 89 | 1011.6 |
| 20260504032104 | 7 | 353 | 0.0 | 0.0 | 0.00 | 0.00 | 0.00 | 88 | 1011.6 |
| 20260504031604 | 7 | 353 | 0.0 | 0.0 | 0.00 | 0.00 | 0.00 | 88 | 1011.5 |
| 20260504031103 | 8 | 353 | 0.0 | 0.0 | 0.00 | 0.00 | 0.00 | 87 | 1011.5 |
| 20260504030603 | 8 | 353 | 0.0 | 0.0 | 0.00 | 0.00 | 0.00 | 87 | 1011.4 |
| 20260504030104 | 8 | 353 | 0.0 | 0.0 | 0.00 | 0.00 | 0.00 | 87 | 1011.5 |
| 20260504025603 | 7 | 353 | 0.0 | 0.0 | 0.00 | 0.00 | 0.00 | 87 | 1011.5 |
| 20260504025103 | 7 | 353 | 0.0 | 1.6 | 0.00 | 0.00 | 0.00 | 87 | 1011.6 |
| 20260504024603 | 7 | 353 | 0.0 | 1.6 | 0.00 | 0.00 | 0.00 | 88 | 1011.7 |
| 20260504024104 | 7 | 353 | 0.0 | 1.6 | 0.00 | 0.00 | 0.00 | 86 | 1011.6 |
| 20260504023103 | 7 | 353 | 0.0 | 3.2 | 0.00 | 0.00 | 0.00 | 85 | 1011.7 |
| 20260504022604 | 7 | 353 | 1.6 | 3.2 | 0.00 | 0.00 | 0.00 | 86 | 1011.4 |
| 20260504022104 | 7 | 353 | 0.0 | 0.0 | 0.00 | 0.00 | 0.00 | 84 | 1011.7 |
| 20260504021604 | 8 | 353 | 0.0 | 1.6 | 0.00 | 0.00 | 0.00 | 83 | 1011.5 |
| 20260504021104 | 8 | 354 | 0.0 | 0.0 | 0.00 | 0.00 | 0.00 | 82 | 1011.5 |
| 20260504020604 | 8 | 354 | 0.0 | 0.0 | 0.00 | 0.00 | 0.00 | 81 | 1011.6 |
| 20260504015603 | 8 | 353 | 1.6 | 1.6 | 0.00 | 0.00 | 0.00 | 81 | 1011.5 |
| 20260504015103 | 8 | 353 | 0.0 | 1.6 | 0.00 | 0.00 | 0.00 | 79 | 1011.5 |
| 20260504014604 | 8 | 353 | 0.0 | 1.6 | 0.00 | 0.00 | 0.00 | 79 | 1011.4 |
| 20260504014104 | 8 | 353 | 1.6 | 1.6 | 0.00 | 0.00 | 0.00 | 78 | 1011.5 |
| 20260504013604 | 8 | 353 | 0.0 | 0.0 | 0.00 | 0.00 | 0.00 | 78 | 1011.5 |
| 20260504013103 | 8 | 352 | 0.0 | 0.0 | 0.00 | 0.00 | 0.00 | 78 | 1011.4 |
| 20260504012104 | 9 | 352 | 0.0 | 0.0 | 0.00 | 0.00 | 0.00 | 76 | 1011.3 |
| 20260504010603 | 10 | 352 | 0.0 | 1.6 | 0.00 | 0.00 | 0.00 | 73 | 1011.2 |
| 20260504010104 | 10 | 352 | 0.0 | 0.0 | 0.00 | 0.00 | 0.00 | 71 | 1011.2 |
| 20260504005603 | 10 | 352 | 0.0 | 0.0 | 0.00 | 0.00 | 0.00 | 70 | 1011.0 |
| 20260504005104 | 10 | 351 | 0.0 | 0.0 | 0.00 | 0.00 | 0.00 | 69 | 1011.1 |
| 20260504004603 | 10 | 351 | 0.0 | 0.0 | 0.00 | 0.00 | 0.00 | 68 | 1011.1 |
| 20260504004103 | 10 | 351 | 0.0 | 0.0 | 0.00 | 0.00 | 0.00 | 68 | 1011.0 |
| 20260504003103 | 11 | 351 | 0.0 | 0.0 | 0.00 | 0.00 | 0.00 | 64 | 1010.9 |
| 20260504002603 | 11 | 351 | 0.0 | 0.0 | 0.00 | 0.00 | 0.00 | 63 | 1010.8 |
| 20260504002104 | 11 | 351 | 0.0 | 0.0 | 0.00 | 0.00 | 0.00 | 61 | 1010.7 |
| 20260504001604 | 11 | 351 | 0.0 | 0.0 | 0.00 | 0.00 | 0.00 | 61 | 1010.6 |
| 20260504001104 | 12 | 351 | 0.0 | 0.0 | 0.00 | 0.00 | 0.00 | 59 | 1010.6 |
| 20260504000603 | 12 | 351 | 0.0 | 0.0 | 0.00 | 0.00 | 0.00 | 57 | 1010.4 |
| 20260504000104 | 13 | 351 | 0.0 | 1.6 | 0.00 | 0.00 | 0.00 | 55 | 1010.4 |
| 20260503235604 | 13 | 351 | 1.6 | 1.6 | 0.00 | 0.00 | 0.00 | 57 | 1010.3 |
| 20260503235104 | 13 | 351 | 0.0 | 1.6 | 0.00 | 0.00 | 0.00 | 53 | 1010.3 |
| 20260503234604 | 14 | 351 | 1.6 | 1.6 | 0.00 | 0.00 | 0.00 | 52 | 1010.2 |
| 20260503234104 | 15 | 351 | 1.6 | 3.2 | 0.00 | 0.00 | 0.00 | 46 | 1010.3 |
| 20260503233604 | 15 | 351 | 0.0 | 1.6 | 0.00 | 0.00 | 0.00 | 47 | 1010.4 |
| 20260503233103 | 15 | 351 | 1.6 | 3.2 | 0.00 | 0.00 | 0.00 | 44 | 1010.1 |
| 20260503232104 | 15 | 351 | 0.0 | 1.6 | 0.00 | 0.00 | 0.00 | 44 | 1010.1 |
| 20260503231604 | 15 | 351 | 0.0 | 1.6 | 0.00 | 0.00 | 0.00 | 46 | 1010.1 |
| 20260503231103 | 15 | 351 | 0.0 | 1.6 | 0.00 | 0.00 | 0.00 | 44 | 1010.1 |
| 20260503230604 | 16 | 351 | 0.0 | 1.6 | 0.00 | 0.00 | 0.00 | 42 | 1010.2 |
| 20260503225604 | 16 | 350 | 3.2 | 4.8 | 0.00 | 0.00 | 0.00 | 42 | 1010.2 |
| 20260503225104 | 16 | 351 | 0.0 | 3.2 | 0.00 | 0.00 | 0.00 | 42 | 1010.2 |
| 20260503224604 | 17 | 352 | 1.6 | 3.2 | 0.00 | 0.00 | 0.00 | 40 | 1010.2 |
| 20260503224104 | 17 | 350 | 1.6 | 9.7 | 0.00 | 0.00 | 0.00 | 40 | 1010.1 |
| 20260503223604 | 17 | 351 | 0.0 | 1.6 | 0.00 | 0.00 | 0.00 | 40 | 1010.2 |
| 20260503223103 | 17 | 352 | 1.6 | 8.0 | 0.00 | 0.00 | 0.00 | 39 | 1010.2 |
| 20260503222603 | 18 | 352 | 1.6 | 8.0 | 0.00 | 0.00 | 0.00 | 39 | 1010.1 |
| 20260503222103 | 18 | 353 | 3.2 | 8.0 | 0.00 | 0.00 | 0.00 | 37 | 1010.1 |
| 20260503221104 | 17 | 338 | 4.8 | 16.1 | 0.00 | 0.00 | 0.00 | 39 | 1010.2 |
| 20260503220603 | 18 | 351 | 4.8 | 9.7 | 0.00 | 0.00 | 0.00 | 36 | 1010.2 |
| 20260503220104 | 18 | 350 | 3.2 | 4.8 | 0.00 | 0.00 | 0.00 | 37 | 1010.2 |
| 20260503215104 | 18 | 353 | 1.6 | 3.2 | 0.00 | 0.00 | 0.00 | 39 | 1010.0 |
| 20260503214604 | 17 | 351 | 3.2 | 11.3 | 0.00 | 0.00 | 0.00 | 37 | 1010.0 |
| 20260503214104 | 17 | 351 | 3.2 | 8.0 | 0.00 | 0.00 | 0.00 | 36 | 1010.1 |
| 20260503213104 | 18 | 351 | 1.6 | 4.8 | 0.00 | 0.00 | 0.00 | 37 | 1009.9 |
| 20260503212104 | 17 | 352 | 3.2 | 12.9 | 0.00 | 0.00 | 0.00 | 37 | 1010.1 |
| 20260503211603 | 17 | 347 | 8.0 | 19.3 | 0.00 | 0.00 | 0.00 | 38 | 1010.1 |
| 20260503211104 | 18 | 341 | 8.0 | 19.3 | 0.00 | 0.00 | 0.00 | 37 | 1009.8 |
| 20260503210104 | 17 | 346 | 8.0 | 14.5 | 0.00 | 0.00 | 0.00 | 37 | 1009.8 |
| 20260503205604 | 18 | 354 | 3.2 | 4.8 | 0.00 | 0.00 | 0.00 | 38 | 1010.0 |
| 20260503204604 | 18 | 353 | 4.8 | 8.0 | 0.00 | 0.00 | 0.00 | 38 | 1009.8 |
| 20260503204103 | 17 | 354 | 3.2 | 9.7 | 0.00 | 0.00 | 0.00 | 40 | 1009.7 |
| 20260503203603 | 18 | 354 | 3.2 | 9.7 | 0.00 | 0.00 | 0.00 | 37 | 1009.9 |
| 20260503203103 | 18 | 355 | 3.2 | 9.7 | 0.00 | 0.00 | 0.00 | 39 | 1009.9 |
| 20260503202604 | 18 | 354 | 1.6 | 4.8 | 0.00 | 0.00 | 0.00 | 40 | 1010.0 |
| 20260503202104 | 18 | 357 | 4.8 | 11.3 | 0.00 | 0.00 | 0.00 | 40 | 1009.9 |
| 20260503201604 | 17 | 355 | 1.6 | 4.8 | 0.00 | 0.00 | 0.00 | 41 | 1010.1 |
| 20260503200604 | 17 | 350 | 6.4 | 16.1 | 0.00 | 0.00 | 0.00 | 42 | 1010.2 |
| 20260503200104 | 17 | 354 | 8.0 | 11.3 | 0.00 | 0.00 | 0.00 | 39 | 1010.2 |
| 20260503195604 | 17 | 354 | 3.2 | 14.5 | 0.00 | 0.00 | 0.00 | 40 | 1010.3 |